This is the latest recevied weather packets stored in our database for station/object SP9KB-14. If no packets are shown the sender has not sent any weather packets the latest 10 day(s).
| Time | Temp. | Humidity | Pressure | Rain* | Wind** | Luminosity | Snow |
|---|---|---|---|---|---|---|---|
| 1778005333 | 22.22° C | 43% | 1030.4 hPa | 0 mm | - | - | - |
| 1778005032 | 22.78° C | 42% | 1030.4 hPa | 0 mm | - | - | - |
| 1778004732 | 22.78° C | 41% | 1030.4 hPa | 0 mm | - | - | - |
| 1778004431 | 22.78° C | 41% | 1030.4 hPa | 0 mm | - | - | - |
| 1778004131 | 23.33° C | 40% | 1030.4 hPa | 0 mm | - | - | - |
| 1778003830 | 23.33° C | 39% | 1030.3 hPa | 0 mm | - | - | - |
| 1778003529 | 23.33° C | 38% | 1030.1 hPa | 0 mm | - | - | - |
| 1778003229 | 23.89° C | 36% | 1030.5 hPa | 0 mm | - | - | - |
| 1778002928 | 23.89° C | 35% | 1030.1 hPa | 0 mm | - | - | - |
| 1778002628 | 23.89° C | 34% | 1030.4 hPa | 0 mm | - | - | - |
| 1778002327 | 24.44° C | 33% | 1030.3 hPa | 0 mm | - | - | - |
| 1778002027 | 23.89° C | 33% | 1030.2 hPa | 0 mm | - | - | - |
| 1778001726 | 23.89° C | 33% | 1030.3 hPa | 0 mm | - | - | - |
| 1778001425 | 24.44° C | 32% | 1030.2 hPa | 0 mm | - | - | - |
| 1778001125 | 24.44° C | 32% | 1030.2 hPa | 0 mm | - | - | - |
| 1778000824 | 24.44° C | 32% | 1030.1 hPa | 0 mm | - | - | - |
| 1778000524 | 24.44° C | 32% | 1030 hPa | 0 mm | - | - | - |
| 1777999923 | 24.44° C | 32% | 1030 hPa | 0 mm | - | - | - |
| 1777999622 | 25° C | 32% | 1030.4 hPa | 0 mm | - | - | - |
| 1777999321 | 25° C | 31% | 1030 hPa | 0 mm | - | - | - |
| 1777999021 | 25° C | 31% | 1030 hPa | 0 mm | - | - | - |
| 1777998720 | 25° C | 31% | 1030.2 hPa | 0 mm | - | - | - |
| 1777998420 | 25° C | 30% | 1030.1 hPa | 0 mm | - | - | - |
| 1777998119 | 25° C | 30% | 1030.3 hPa | 0 mm | - | - | - |
| 1777997818 | 25° C | 30% | 1030.2 hPa | 0 mm | - | - | - |
* Rain latest hour (hover to see other rain measurements)
** Current wind speed in m/s (hover to see current wind gust speed)